CAPE
893 761 948 1027 1001 1485 1253 1278 1457 1313 1333 1088 1385 1921 2058 2401 2542 1791 1703 1772 1950 1844 2072 1803 1849 2022 1372 1245 1144 1019 648 858 757 705 750 142 53 1417 1399 1485 1361 1350 1058
1080 1135 903 907 1002 1063 1340 1234 996 1020 1455 1272 1894 2298 2337 2577 2607 2718 2579 2074 2140 2161 2133 2241 1823 1614 1659 1619 1381 1229 952 974 852 754 863 695 731 822 1354 1485 1354 1124 1015
1195 1205 1202 1069 1229 1247 1038 1060 1005 1200 1307 1880 2211 2383 2723 2808 2515 2743 2602 2457 2376 2145 2151 2190 1308 889 1106 1365 1673 1124 803 1542 587 751 1066 815 783 775 772 1007 1359 1241 1225
1112 1031 1043 1089 1009 1029 953 1202 1446 1201 1330 1780 2124 2677 2878 2851 2633 2494 2658 2189 2117 1592 1813 1882 1552 1775 1752 1822 1671 1131 1230 1194 933 497 574 378 238 542 610 447 446 1096 1163
1779 1646 1528 1542 1451 1676 1601 1515 1804 2075 2308 3012 2860 2901 2982 2607 1284 1479 2670 2692 2163 2313 1885 2124 1560 1320 1055 923 1222 1033 1020 892 376 390 259 82 92 326 269 177 232 613 1031
2141 2096 2365 2608 2585 2565 2610 2606 2787 3410 3283 2999 2813 2536 2031 1039 64 851 1534 2949 2683 2198 2264 1882 1912 897 615 319 135 0 1 696 708 597 747 190 72 21 0 24 120 118 256
2591 2617 2914 3132 3082 3167 3207 2893 2750 2645 2510 2330 1949 1263 171 0 0 69 1069 2300 2282 2173 1918 1791 1581 1178 801 986 651 356 259 155 11 78 523 582 550 300 91 313 197 271 116
2942 3219 3415 3064 2682 2479 2414 2161 1960 1768 1328 1186 920 517 9 0 0 0 121 1346 1620 1251 1030 937 1174 665 35 256 935 906 919 894 527 539 621 893 1181 1161 1018 860 799 661 552
3409 3163 2850 2561 2377 2256 1915 1595 1317 713 316 109 43 19 0 0 0 0 2 380 412 475 161 43 142 105 0 0 521 801 693 628 278 45 2 1 15 29 108 398 538 555 456
3283 2940 2615 2276 1602 952 469 270 92 3 0 0 0 0 0 0 0 0 0 0 220 359 297 0 0 0 0 0 0 10 81 1 0 0 10 319 165 498 188 259 293 278 234
2262 1353 661 396 301 205 153 80 52 12 0 0 0 0 0 0 0 0 0 0 0 0 1 0 0 0 0 0 0 0 0 0 0 0 4 21 41 36 21 18 11 1 4
526 260 236 178 11 20 42 12 0 0 0 0 0 0 0 0 0 0 0 0 0 0 0 0 0 0 0 0 0 0 0 0 0 6 11 10 8 1 1 1 3 6 2
178 176 85 3 0 0 0 0 0 0 0 0 0 0 0 0 0 0 0 0 0 0 0 0 0 0 0 0 0 0 0 0 0 0 0 1 0 0 0 3 1 0 0
160 121 56 5 0 0 0 0 0 0 0 0 0 0 0 0 0 0 0 0 0 0 0 0 0 0 0 0 0 0 0 0 0 0 0 0 0 0 0 0 0 0 0
137 27 0 0 0 0 0 0 0 0 0 0 0 0 0 0 0 0 0 0 0 0 0 0 0 0 0 0 0 0 0 0 0 0 0 0 0 0 0 0 0 0 0
75 0 0 0 0 0 0 0 0 0 0 0 0 0 0 0 0 0 0 0 0 0 0 0 0 0 0 0 0 0 0 0 0 0 0 0 0 0 0 0 0 0 0
64 1 0 0 0 0 0 0 0 0 0 0 0 0 0 0 0 0 0 0 0 0 0 0 0 0 0 0 0 0 0 0 0 0 0 0 0 0 0 0 0 0 0
40 0 0 0 0 0 0 0 0 0 0 0 0 0 0 0 0 0 0 0 0 0 0 0 0 0 0 0 0 0 1 0 1 0 0 0 0 0 0 0 0 0 0
23 0 0 0 0 0 0 0 0 0 0 0 0 0 0 0 0 0 0 0 0 0 0 0 0 0 0 1 1 1 1 3 0 1 0 0 0 0 0 0 0 0 0
0 0 0 0 0 0 0 0 0 0 0 0 0 0 0 0 0 0 0 0 0 0 0 0 1 1 1 1 2 4 3 2 6 10 1 0 0 0 0 0 0 0 0
0 0 0 0 0 0 0 0 0 0 0 0 0 0 0 0 0 0 0 0 0 0 0 0 0 0 0 1 1 1 1 3 5 8 3 0 0 0 0 0 0 0 0
0 0 0 0 0 0 0 0 0 0 0 0 0 0 0 0 0 0 0 0 0 0 0 0 0 0 0 0 0 0 1 2 4 1 0 0 0 0 0 0 0 0 0
0 0 0 0 0 0 0 0 0 0 0 0 0 0 0 0 0 0 0 0 0 0 0 0 0 0 0 0 0 0 0 1 0 0 0 0 0 0 0 0 0 0 0
0 0 0 0 0 0 0 0 0 0 0 0 0 0 0 0 0 0 0 0 0 0 0 0 0 0 0 0 0 0 0 0 0 0 0 0 0 0 0 0 0 0 6
0 0 0 0 0 0 0 0 0 0 0 0 0 0 0 0 0 0 0 0 0 0 0 0 0 0 0 0 0 0 0 0 0 0 0 0 0 0 0 0 2 13 14
0 0 0 0 0 0 0 0 0 0 0 0 0 0 0 0 0 0 0 0 0 0 0 0 0 0 0 0 0 0 0 0 0 0 0 0 0 0 0 1 4 4 6
CIN
-83 -71 -64 -65 -76 -71 -74 -72 -62 -60 -60 -74 -51 -16 -9 -7 -15 -55 -34 -34 -26 -26 -5 -2 -1 -1 -13 -1 -5 -6 -3 -2 -6 -21 -7 -69 -302 -19 -7 -3 -10 -4 -37
-74 -80 -90 -100 -89 -67 -79 -76 -93 -101 -79 -97 -39 -14 -15 -6 0 -1 -1 -7 -7 -3 -1 -1 -5 -6 -6 -10 -1 -2 -7 -15 -12 -9 -11 -18 -13 -5 -7 -1 -1 -1 -2
-68 -71 -86 -85 -89 -85 -73 -90 -97 -101 -100 -34 -9 -8 -4 -1 -7 -1 -3 -7 -2 -2 -1 -4 -11 -16 -14 -9 -3 -2 -9 -6 -32 -10 -6 -13 -2 -1 -10 -10 -2 -3 -5
-33 -55 -64 -76 -75 -79 -84 -85 -68 -97 -98 -48 -14 -1 -3 -5 -5 -7 -3 -12 -13 -12 -6 -2 -13 -3 -1 -1 -3 -3 -2 -1 -3 -18 -2 -14 -17 -6 -4 -11 -23 -5 -10
-50 -46 -56 -70 -59 -66 -59 -76 -68 -42 -11 -1 -6 -1 0 -4 -132 -107 -18 -5 -11 -2 -1 0 -6 -28 -64 -59 -26 -4 -2 -4 -3 -6 -24 -47 -22 -6 -10 -17 -13 -8 -26
-95 -75 -48 -52 -54 -49 -32 -30 -20 -1 -4 -6 0 -2 -11 -84 -457 -165 -79 0 0 -6 -3 -11 -5 -60 -83 -126 -140 -74 -13 -14 -4 -1 0 -24 -45 -66 0 -28 -20 0 -27
-97 -74 -45 -37 -39 -29 -20 -25 -23 -19 -7 -3 -4 -56 -380 0 0 -385 -73 -1 0 0 0 0 0 -4 -21 -9 -49 -68 -75 -95 -116 -41 0 -1 0 -12 -30 -27 -31 -54 -69
-78 -61 -39 -58 -67 -67 -53 -66 -58 -39 -75 -63 -90 -176 -101 0 0 0 -296 -2 0 -5 -12 -15 -1 -15 -125 -175 -3 -1 -1 -1 -9 -10 -1 -1 0 0 0 0 -4 -17 -20
-59 -71 -76 -78 -68 -56 -68 -85 -94 -180 -298 -430 -503 -526 0 0 0 0 -69 -133 -119 -85 -234 -31 -239 -260 0 0 -28 -1 0 -1 -28 -98 -21 -27 -88 -143 -97 -10 -1 0 -2
-56 -65 -65 -77 -125 -192 -270 -314 -422 -559 0 0 0 0 0 0 0 0 0 0 -189 -108 -118 0 0 0 0 0 0 -293 -112 -6 0 0 -4 -8 -24 -4 -26 -12 -3 -1 0
-146 -247 -327 -342 -352 -355 -366 -426 -435 -507 0 0 0 0 0 0 0 0 0 0 0 0 -1 0 0 0 0 0 0 0 0 0 0 0 0 -2 -3 -17 -11 -2 -3 -3 -1
-409 -446 -416 -404 -187 -495 -431 -180 0 -1 0 0 0 0 0 0 0 0 0 0 0 0 0 0 0 0 0 0 0 0 0 0 -1 -2 -4 -12 -11 -10 -15 -14 -6 -6 0
-496 -463 -437 -493 0 0 0 0 0 0 0 0 0 0 0 0 0 0 0 0 0 0 0 0 0 0 0 0 0 0 0 0 0 0 0 -1 0 0 0 -1 0 0 0
-484 -452 -466 -479 0 0 0 0 0 0 0 0 0 0 0 0 0 0 0 0 0 0 0 -3 0 0 0 0 0 0 0 0 0 0 0 0 0 0 0 0 0 0 0
-470 -517 0 0 0 0 0 0 0 0 0 0 0 0 0 0 0 0 0 0 0 0 0 0 0 0 0 0 0 0 0 0 0 0 0 0 0 0 0 0 0 0 0
-469 0 0 0 0 0 0 0 0 0 0 0 0 0 0 0 0 0 0 0 0 0 0 0 0 0 0 0 0 0 0 0 0 0 0 0 0 0 0 0 0 0 0
-409 -309 0 0 0 0 0 0 0 0 0 0 0 0 0 0 0 0 0 0 0 0 0 0 0 0 0 0 0 0 0 0 0 0 0 0 0 0 0 0 0 0 0
-446 0 0 0 0 0 0 0 0 0 0 0 0 0 0 0 0 0 0 0 0 0 0 0 0 0 0 0 0 0 -1 -1 -2 0 0 0 0 0 0 0 0 0 0
-473 0 0 0 0 0 0 0 0 0 0 0 0 0 0 0 0 0 0 0 0 0 0 0 0 0 0 -1 -2 -1 -1 -2 0 -1 -2 0 0 0 0 0 0 0 0
0 0 0 0 0 0 0 0 0 0 0 0 0 0 0 0 0 0 0 0 0 0 0 0 -1 -2 -1 -2 -2 -3 -2 -3 -4 -2 -2 0 0 0 0 0 0 0 0
0 0 0 0 0 0 0 0 0 0 0 0 0 0 0 0 0 0 0 0 0 0 0 0 0 0 0 -1 -2 -3 -1 -2 -2 -1 -2 0 0 0 0 0 0 0 0
0 0 0 0 0 0 0 0 0 0 0 0 0 0 0 0 0 0 0 0 0 0 0 0 0 0 0 0 0 -1 -1 -2 -3 -2 0 0 0 0 0 0 0 0 0
0 0 0 0 0 0 0 0 0 0 0 0 0 0 0 0 0 0 0 0 0 0 0 0 0 0 0 0 0 0 0 -1 -1 0 0 0 0 0 0 0 0 0 0
0 0 0 0 0 0 0 0 0 0 0 0 0 0 0 0 0 0 0 0 0 0 0 0 0 0 0 0 0 0 0 0 0 0 0 0 0 0 0 0 0 0 -3
0 0 0 0 0 0 0 0 0 0 0 0 0 0 0 0 0 0 0 0 0 0 0 0 0 0 0 0 0 0 0 0 0 0 0 0 0 0 0 0 -2 -4 -6
0 0 0 0 0 0 0 0 0 0 0 0 0 0 0 0 0 0 0 0 0 0 0 0 0 0 0 0 0 0 0 0 0 0 0 0 0 0 0 -3 -2 -3 -5
Wind_Speed
24 23 20 19 17 18 18 14 12 8 7 6 8 8 9 9 9 7 5 13 7 5 5 4 7 8 7 6 5 5 5 8 8 5 25 3 20 21 13 12 7 1 6
22 22 22 21 23 18 13 12 10 8 7 6 8 8 9 10 8 10 12 13 12 9 2 1 6 4 3 4 4 5 5 17 23 19 15 23 18 5 25 23 16 7 2
17 18 21 19 15 16 14 10 10 7 6 7 7 7 8 8 11 11 12 10 14 8 6 1 18 10 12 3 6 2 4 8 6 17 27 29 27 16 13 28 26 24 25
15 15 12 13 9 10 7 7 6 6 5 5 6 5 4 9 4 6 6 8 10 5 9 4 3 10 15 17 12 3 5 5 6 7 2 28 35 37 31 28 34 35 21
13 9 6 7 7 7 7 7 6 6 5 5 7 7 9 8 20 25 5 4 2 4 3 7 7 12 15 10 23 10 5 2 3 10 3 4 34 34 35 26 30 37 20
8 8 7 7 7 7 7 6 7 13 15 13 14 15 18 19 24 25 23 14 15 12 9 12 15 17 13 7 5 16 6 5 2 6 5 7 6 28 33 28 28 37 20
8 9 7 7 7 8 10 11 12 13 14 15 16 16 18 21 24 22 22 20 18 19 20 19 16 17 16 12 6 3 2 2 1 3 6 9 8 8 13 27 25 21 28
8 7 8 8 9 10 11 12 13 14 14 15 16 17 18 21 24 22 20 17 18 19 20 20 18 18 20 21 19 18 18 16 9 8 10 12 14 17 14 15 18 21 21
8 7 9 9 10 10 11 11 12 12 13 15 16 17 18 21 23 23 22 14 17 17 18 20 19 19 21 22 20 19 19 18 16 16 16 16 17 17 17 19 19 21 23
9 9 10 10 10 11 11 11 12 12 13 14 16 17 18 20 22 22 21 17 17 16 16 19 22 20 20 20 20 20 20 20 21 21 20 16 16 19 17 21 24 25 25
9 9 10 11 11 11 12 12 12 13 13 15 15 17 19 20 21 22 21 17 18 16 18 20 21 21 21 21 20 20 20 20 19 16 18 18 19 20 21 22 22 25 27
8 9 11 11 12 12 12 12 12 12 13 13 13 15 17 19 20 20 20 20 19 17 18 18 19 20 21 22 22 22 22 23 22 21 22 23 23 24 26 27 26 26 25
10 10 11 12 12 12 12 12 12 11 12 12 13 15 16 16 18 18 19 19 19 18 18 18 18 18 18 22 23 23 24 24 23 22 23 23 23 24 24 24 25 25 25
10 11 11 12 12 12 12 12 12 12 12 13 13 14 16 17 18 19 17 16 17 17 16 18 18 19 20 21 23 23 24 24 24 25 25 26 27 27 27 28 30 30 31
9 10 10 11 11 11 14 15 13 16 16 13 14 16 15 16 18 19 20 20 20 19 21 19 19 20 20 22 22 23 24 25 25 26 26 27 28 29 29 30 30 30 31
7 9 10 10 10 11 10 13 16 14 15 16 16 15 16 16 17 19 20 19 19 20 18 19 20 20 21 22 23 24 24 26 28 28 29 29 30 31 32 33 32 33 34
6 8 9 9 9 10 10 10 11 13 14 15 15 16 16 16 18 18 20 20 19 20 18 19 20 21 22 23 24 25 26 26 26 29 30 31 32 32 34 34 33 33 34
5 5 7 8 9 9 9 9 9 10 11 12 14 14 15 16 17 17 18 19 16 17 20 20 21 21 22 23 24 26 26 27 27 29 30 31 33 34 34 34 34 35 36
4 4 5 7 7 8 8 8 8 9 10 11 12 13 13 13 14 15 15 17 19 19 20 20 21 22 24 24 25 26 26 26 27 26 29 31 32 32 34 34 35 35 36
2 2 4 6 7 7 7 7 8 9 10 10 10 11 11 12 12 11 12 17 19 20 21 22 22 22 23 24 24 24 25 27 27 28 29 30 31 33 35 35 35 36 36
3 2 3 4 5 6 6 7 8 9 9 10 12 14 16 15 16 16 16 18 19 21 22 23 24 23 23 23 24 26 26 27 28 28 29 30 31 32 32 33 34 36 37
4 4 3 3 4 5 6 7 7 8 9 10 12 14 13 10 14 15 16 17 19 20 21 22 23 24 24 25 25 25 27 28 28 28 29 29 29 30 31 33 35 35 36
5 5 2 2 4 5 5 6 7 8 9 11 12 12 11 11 14 15 16 18 20 21 22 23 24 24 25 25 25 25 24 26 25 26 28 28 28 29 31 32 33 33 33
6 4 2 1 3 4 4 5 7 8 9 11 12 13 12 12 13 15 16 19 20 23 24 25 24 24 25 24 24 24 25 25 25 26 27 27 27 30 30 29 29 30 33
8 4 2 1 2 3 4 5 6 7 8 10 11 11 10 12 13 14 16 18 21 23 25 25 23 23 23 25 21 22 24 27 25 25 25 27 26 27 26 27 29 33 36
8 7 6 2 1 4 4 4 6 7 8 9 9 10 11 12 13 15 16 18 20 25 25 25 24 22 22 21 20 21 23 23 24 25 26 25 25 27 28 28 30 30 31
Wind_Direction
176 179 175 176 177 183 188 179 177 166 152 145 154 160 173 175 168 162 156 192 163 152 151 58 154 158 157 133 116 98 52 12 356 314 278 12 211 286 302 317 323 17 147
170 173 179 179 190 181 175 177 170 164 153 148 160 175 185 195 187 189 191 190 187 182 142 131 176 158 153 143 46 51 39 348 331 328 321 308 318 182 284 283 295 307 205
153 159 173 170 167 178 178 170 170 153 137 146 158 175 188 186 195 194 198 193 198 183 170 120 323 217 340 100 4 76 42 14 17 339 308 300 299 306 302 283 277 279 280
141 146 136 151 135 144 125 123 112 102 105 150 169 153 150 191 159 188 192 198 205 190 192 177 157 359 342 329 337 99 20 14 15 10 349 316 295 273 290 294 268 259 283
131 106 76 80 82 68 60 61 67 49 94 66 37 43 23 26 341 323 43 47 119 156 103 32 15 353 351 8 246 353 17 57 47 8 334 257 291 271 274 299 280 261 286
90 106 80 74 38 55 63 71 48 356 350 4 7 7 353 355 335 327 327 355 357 10 26 13 3 354 1 15 13 339 7 13 10 10 31 33 53 285 279 294 293 273 296
91 98 66 62 64 31 15 8 9 3 4 1 3 8 2 352 339 345 339 343 346 345 343 347 0 358 6 17 41 94 139 199 238 360 21 34 43 54 350 298 312 319 306
88 68 46 33 41 40 33 19 12 3 0 1 5 7 4 354 340 339 347 356 355 351 346 345 352 353 347 343 349 356 355 360 19 22 10 2 359 355 357 350 334 325 319
78 46 54 54 47 37 27 21 19 18 13 9 9 7 7 360 345 341 337 20 3 2 356 351 352 351 343 342 349 351 356 2 10 9 4 359 355 352 349 342 337 330 323
76 63 51 43 33 26 26 27 24 29 21 14 10 9 8 4 353 349 346 13 10 17 19 5 352 353 352 351 350 347 346 346 342 341 343 350 353 347 347 338 328 325 325
66 54 42 37 29 30 32 34 35 21 18 12 11 10 6 2 359 357 353 9 8 14 10 5 5 5 2 358 360 356 353 351 353 2 356 357 357 356 352 346 342 329 322
58 45 39 39 38 38 38 34 30 27 21 22 23 19 12 7 5 4 3 2 357 14 14 16 15 13 12 6 4 358 353 353 351 350 350 347 346 344 338 335 337 334 333
71 49 49 43 42 45 46 47 41 38 31 29 17 10 10 18 15 16 11 5 359 8 8 10 11 13 10 2 0 353 351 349 350 350 349 349 346 345 345 344 342 341 335
69 55 49 50 51 53 55 53 40 27 24 18 15 12 8 3 357 355 8 17 15 13 17 13 10 6 4 2 357 354 352 350 346 344 341 339 340 341 341 341 337 335 332
64 57 56 58 60 50 13 356 15 356 351 15 11 4 10 6 0 356 352 353 353 358 352 3 3 2 3 360 0 1 357 348 347 346 345 343 342 339 338 337 336 335 331
75 75 66 67 66 40 43 12 3 4 360 2 3 14 10 21 15 7 4 2 0 355 5 4 4 2 360 357 355 354 354 350 345 342 341 340 339 336 334 333 332 329 326
87 80 70 59 54 51 46 39 23 9 13 13 15 17 21 23 15 10 8 4 2 355 5 1 359 358 357 355 353 350 349 347 345 341 339 338 337 336 333 331 331 329 327
97 57 63 53 47 52 49 40 29 26 17 20 16 18 20 17 14 13 10 2 6 6 356 355 353 357 354 352 350 348 347 345 346 345 342 341 338 336 335 333 332 329 327
100 80 51 38 36 44 51 52 38 25 19 20 18 13 22 23 21 19 15 8 1 355 354 354 354 351 349 349 348 347 347 345 344 347 344 342 341 339 336 334 331 329 328
136 67 37 32 31 45 48 46 32 22 19 20 20 24 30 26 18 21 22 6 358 355 352 350 350 349 347 347 347 348 347 345 344 343 344 343 341 338 335 333 331 329 328
157 123 47 31 37 36 33 26 22 21 21 19 13 3 1 5 7 10 7 2 0 357 355 352 350 350 349 348 346 344 344 343 343 344 344 343 342 340 339 335 333 331 328
163 142 99 34 31 28 20 16 20 18 15 12 13 9 12 20 14 12 10 9 3 0 358 356 353 350 349 347 346 346 344 344 345 346 347 347 345 343 341 338 334 332 330
182 161 121 46 30 22 24 11 16 9 11 12 14 21 25 24 18 16 11 4 2 2 358 356 353 351 350 350 348 348 348 349 352 353 348 347 346 344 342 340 338 336 335
209 211 204 339 32 40 39 29 15 10 17 13 12 11 20 23 20 13 9 5 3 359 356 354 353 352 352 352 353 358 358 354 351 350 349 348 347 344 343 343 342 340 337
241 240 240 325 11 26 27 26 15 17 12 13 12 20 26 16 11 11 8 4 360 358 355 354 355 355 355 354 357 360 358 353 354 354 352 349 348 347 347 345 344 340 336
254 272 275 354 11 347 15 17 4 11 11 11 18 18 11 7 7 4 1 359 358 355 355 355 355 355 353 356 4 0 358 358 357 355 354 352 351 349 347 345 343 342 339